Train No Train Name From To Distance Stops avg_speed (km/hr)
12562 Swatantrata Sainani Express New Delhi Jaynagar 1241 19 55
A Train's "Departure" Station, "Arrival" Station and "Distance" may vary. Although we have verified some of this data from enquiry.indianrail.gov.in
Train No Start Date (yyyy-mm-dd) Status Delay Time Source
12562 2017-01-10 Late 13 hours 25 minutes Source
12562 2017-01-15 Late 13 hours 20 minutes Source
12562 2017-01-16 Late 13 hours 05 minutes Source
12562 2017-01-21 Late 12 hours 30 minutes Source
12562 2017-01-22 Late 13 hours 05 minutes Source
12562 2017-01-23 Late 13 hours 55 minutes Source
12562 2017-02-06 Late 13 hours 05 minutes Source
12562 2017-02-09 Late 13 hours 55 minutes Source
12562 2017-02-11 Late 11 hours 30 minutes Source
12562 2017-02-12 Late 12 hours 40 minutes Source
12562 2017-02-15 Late 11 hours 50 minutes Source
12562 2017-02-18 Late 12 hours 15 minutes Source
12562 2017-02-25 Late 12 hours 25 minutes Source
12562 2017-02-26 Late 12 hours 06 minutes Source
12562 2017-02-28 Late 14 hours 55 minutes Source
12562 2017-03-02 Late 11 hours 38 minutes Source
12562 2017-03-04 Late 11 hours 45 minutes Source
12562 2017-03-05 Late 14 hours 45 minutes Source
12562 2017-03-07 Late 10 hours 45 minutes Source
12562 2017-03-10 Late 13 hours 20 minutes Source
12562 2017-03-12 Late 13 hours 35 minutes Source
12562 2017-03-13 Late 11 hours 50 minutes Source
12562 2017-03-18 Late 12 hours 50 minutes Source
12562 2017-03-21 Late 11 hours 41 minutes Source
12562 2017-03-22 Late 11 hours 05 minutes Source
12562 2017-03-24 Late 14 hours 15 minutes Source
12562 2017-03-27 Late 11 hours 33 minutes Source
12562 2017-04-04 Late 10 hours 00 minutes Source
12562 2017-04-05 Late 10 hours 00 minutes Source
12562 2017-04-10 Late 13 hours 45 minutes Source
12562 2017-04-11 Late 10 hours 00 minutes Source
12562 2017-04-13 Late 13 hours 55 minutes Source
12562 2017-04-15 Late 11 hours 45 minutes Source
12562 2017-04-16 Late 13 hours 55 minutes Source
12562 2017-04-18 Late 12 hours 10 minutes Source
12562 2017-04-19 Late 13 hours 00 minutes Source
12562 2017-04-20 Late 11 hours 10 minutes Source
12562 2017-04-21 Late 10 hours 45 minutes Source
12562 2017-04-22 Late 12 hours 45 minutes Source
12562 2017-04-23 Late 12 hours 45 minutes Source
12562 2017-04-25 Late 12 hours 25 minutes Source
12562 2017-04-26 Late 11 hours 25 minutes Source
12562 2017-04-27 Late 13 hours 20 minutes Source
Page 1 of 1, showing 43 records out of 43 total